| time (UTC) | temp C | wind direction | speed KPH | gust KPH | rain 1hr cm | rain 24hr cm | rain mn cm | humidity % | barometer mb |
| 20260906123014 | 20 | 267 | 6.4 | 25.7 | 0.00 | 0.25 | 0.00 | 53 | 1024.3 |
| 20260906121508 | 19 | 273 | 8.0 | 19.3 | 0.00 | 0.25 | 0.00 | 54 | 1024.5 |
| 20260906120004 | 18 | 325 | 3.2 | 16.1 | 0.00 | 0.25 | 0.00 | 57 | 1024.5 |
| 20260906114505 | 18 | 327 | 6.4 | 17.7 | 0.00 | 0.25 | 0.00 | 58 | 1024.6 |
| 20260906113113 | 17 | 344 | 3.2 | 14.5 | 0.00 | 0.25 | 0.00 | 60 | 1024.7 |
| 20260906111559 | 17 | 286 | 6.4 | 19.3 | 0.00 | 0.25 | 0.00 | 58 | 1024.6 |
| 20260906110056 | 17 | 301 | 3.2 | 16.1 | 0.00 | 0.25 | 0.00 | 58 | 1024.6 |
| 20260906104556 | 17 | 340 | 4.8 | 16.1 | 0.00 | 0.25 | 0.00 | 59 | 1024.6 |
| 20260906103054 | 17 | 319 | 6.4 | 20.9 | 0.00 | 0.25 | 0.00 | 59 | 1024.5 |
| 20260906101559 | 17 | 319 | 9.7 | 19.3 | 0.00 | 0.25 | 0.00 | 58 | 1024.4 |
| 20260906100052 | 17 | 295 | 9.7 | 24.1 | 0.00 | 0.25 | 0.00 | 59 | 1024.3 |
| 20260906094553 | 17 | 245 | 11.3 | 24.1 | 0.00 | 0.25 | 0.00 | 59 | 1024.3 |
| 20260906093047 | 17 | 318 | 9.7 | 16.1 | 0.00 | 0.25 | 0.00 | 63 | 1024.4 |
| 20260906091549 | 16 | 313 | 11.3 | 22.5 | 0.00 | 0.25 | 0.00 | 65 | 1024.4 |
| 20260906090043 | 16 | 325 | 6.4 | 20.9 | 0.00 | 0.25 | 0.00 | 69 | 1024.4 |
| 20260906084540 | 16 | 265 | 6.4 | 19.3 | 0.00 | 0.25 | 0.00 | 71 | 1024.4 |
| 20260906083039 | 16 | 274 | 6.4 | 20.9 | 0.00 | 0.25 | 0.00 | 71 | 1024.3 |
| 20260906081541 | 15 | 280 | 6.4 | 24.1 | 0.00 | 0.25 | 0.00 | 72 | 1024.3 |
| 20260906080035 | 15 | 319 | 9.7 | 20.9 | 0.00 | 0.25 | 0.00 | 74 | 1024.1 |
| 20260906074531 | 15 | 236 | 4.8 | 14.5 | 0.00 | 0.25 | 0.00 | 77 | 1023.9 |
| 20260906073028 | 15 | 324 | 4.8 | 17.7 | 0.00 | 0.25 | 0.00 | 78 | 1023.9 |
| 20260906071528 | 14 | 314 | 4.8 | 17.7 | 0.00 | 0.25 | 0.00 | 80 | 1023.7 |
| 20260906070022 | 13 | 286 | 6.4 | 17.7 | 0.00 | 0.25 | 0.00 | 81 | 1023.5 |
| 20260906064525 | 13 | 245 | 3.2 | 16.1 | 0.00 | 0.25 | 0.00 | 82 | 1023.4 |
| 20260906063019 | 13 | 279 | 3.2 | 16.1 | 0.00 | 0.25 | 0.00 | 84 | 1023.3 |
| 20260906061516 | 12 | 249 | 3.2 | 14.5 | 0.00 | 0.25 | 0.00 | 85 | 1023.1 |
| 20260906060014 | 12 | 294 | 6.4 | 16.1 | 0.00 | 0.25 | 0.00 | 86 | 1022.9 |
| 20260906054513 | 12 | 225 | 0.0 | 14.5 | 0.00 | 0.25 | 0.00 | 88 | 1022.8 |
| 20260906053011 | 11 | 252 | 1.6 | 11.3 | 0.00 | 0.25 | 0.00 | 88 | 1022.6 |
| 20260906051515 | 11 | 228 | 3.2 | 9.7 | 0.00 | 0.25 | 0.00 | 89 | 1022.4 |
| 20260906050013 | 11 | 238 | 3.2 | 11.3 | 0.00 | 0.25 | 0.00 | 89 | 1022.4 |
| 20260906044507 | 11 | 273 | 0.0 | 6.4 | 0.00 | 0.25 | 0.00 | 88 | 1022.3 |
| 20260906043007 | 11 | 229 | 1.6 | 11.3 | 0.00 | 0.25 | 0.00 | 87 | 1022.2 |
| 20260906041503 | 12 | 238 | 3.2 | 14.5 | 0.00 | 0.25 | 0.00 | 87 | 1022.0 |
| 20260906040001 | 12 | 263 | 3.2 | 11.3 | 0.00 | 0.25 | 0.00 | 87 | 1021.9 |
| 20260906034601 | 11 | 233 | 3.2 | 14.5 | 0.00 | 0.25 | 0.00 | 87 | 1021.7 |
| 20260906033056 | 11 | 308 | 3.2 | 12.9 | 0.00 | 0.25 | 0.00 | 87 | 1021.6 |
| 20260906031617 | 12 | 203 | 0.0 | 14.5 | 0.00 | 0.25 | 0.00 | 87 | 1021.5 |
| 20260906030053 | 12 | 225 | 1.6 | 12.9 | 0.00 | 0.25 | 0.00 | 87 | 1021.5 |
| 20260906024556 | 12 | 241 | 1.6 | 11.3 | 0.00 | 0.25 | 0.00 | 86 | 1021.2 |
| 20260906023106 | 12 | 228 | 3.2 | 12.9 | 0.00 | 0.25 | 0.00 | 86 | 1021.2 |
| 20260906021547 | 12 | 292 | 4.8 | 16.1 | 0.00 | 0.25 | 0.00 | 86 | 1021.1 |
| 20260906020050 | 12 | 276 | 4.8 | 12.9 | 0.00 | 0.25 | 0.00 | 85 | 1021.1 |
| 20260906014544 | 13 | 323 | 4.8 | 17.7 | 0.00 | 0.25 | 0.00 | 86 | 1021.1 |
| 20260906013041 | 13 | 286 | 1.6 | 12.9 | 0.00 | 0.25 | 0.00 | 85 | 1020.8 |
| 20260906011538 | 13 | 305 | 3.2 | 16.1 | 0.00 | 0.25 | 0.00 | 85 | 1020.6 |
| 20260906010036 | 13 | 313 | 3.2 | 16.1 | 0.00 | 0.25 | 0.00 | 86 | 1020.5 |
| 20260906004541 | 12 | 281 | 1.6 | 12.9 | 0.00 | 0.25 | 0.00 | 87 | 1020.4 |
| 20260906003033 | 13 | 235 | 1.6 | 11.3 | 0.00 | 0.25 | 0.00 | 87 | 1020.4 |
| 20260906001540 | 13 | 252 | 1.6 | 12.9 | 0.00 | 0.25 | 0.00 | 87 | 1020.4 |
| 20260906000030 | 13 | 288 | 6.4 | 17.7 | 0.00 | 0.25 | 0.00 | 87 | 1020.5 |
| 20260905234531 | 13 | 302 | 4.8 | 14.5 | 0.00 | 0.25 | 0.00 | 88 | 1020.3 |
| 20260905233028 | 13 | 290 | 1.6 | 11.3 | 0.00 | 0.25 | 0.00 | 88 | 1020.2 |
| 20260905231534 | 13 | 284 | 0.0 | 14.5 | 0.00 | 0.25 | 0.00 | 89 | 1020.1 |
| 20260905230024 | 13 | 223 | 1.6 | 14.5 | 0.00 | 0.25 | 0.00 | 89 | 1020.0 |
| 20260905224523 | 13 | 286 | 0.0 | 4.8 | 0.00 | 0.25 | 0.00 | 88 | 1019.9 |
| 20260905223020 | 13 | 294 | 0.0 | 14.5 | 0.00 | 0.25 | 0.00 | 87 | 1019.7 |
| 20260905221518 | 13 | 287 | 6.4 | 12.9 | 0.00 | 0.25 | 0.00 | 86 | 1019.8 |
| 20260905220015 | 13 | 302 | 3.2 | 16.1 | 0.00 | 0.25 | 0.00 | 86 | 1019.7 |
| 20260905214513 | 13 | 296 | 8.0 | 24.1 | 0.00 | 0.25 | 0.25 | 87 | 1019.5 |
| 20260905213010 | 13 | 294 | 3.2 | 19.3 | 0.00 | 0.25 | 0.25 | 89 | 1019.4 |
| 20260905211509 | 13 | 259 | 1.6 | 14.5 | 0.00 | 0.25 | 0.25 | 89 | 1019.3 |
| 20260905210008 | 13 | 270 | 3.2 | 16.1 | 0.00 | 0.25 | 0.25 | 88 | 1019.3 |
| 20260905204505 | 13 | 288 | 6.4 | 25.7 | 0.00 | 0.25 | 0.25 | 88 | 1019.2 |
| 20260905203003 | 13 | 263 | 1.6 | 6.4 | 0.00 | 0.25 | 0.25 | 89 | 1018.9 |
| 20260905201501 | 13 | 270 | 1.6 | 11.3 | 0.00 | 0.25 | 0.25 | 89 | 1018.8 |
| 20260905200105 | 13 | 297 | 1.6 | 8.0 | 0.00 | 0.25 | 0.25 | 89 | 1018.7 |
| 20260905194549 | 13 | 249 | 1.6 | 11.3 | 0.00 | 0.25 | 0.25 | 89 | 1018.5 |
| 20260905193009 | 13 | 240 | 1.6 | 11.3 | 0.00 | 0.25 | 0.25 | 89 | 1018.3 |
| 20260905191508 | 13 | 242 | 3.2 | 12.9 | 0.00 | 0.25 | 0.25 | 89 | 1018.2 |
| 20260905190012 | 14 | 225 | 1.6 | 8.0 | 0.00 | 0.25 | 0.25 | 88 | 1018.0 |
| 20260905184506 | 14 | 314 | 3.2 | 17.7 | 0.00 | 0.38 | 0.25 | 90 | 1017.8 |
| 20260905183002 | 14 | 264 | 1.6 | 12.9 | 0.00 | 0.38 | 0.25 | 91 | 1017.7 |
| 20260905181600 | 14 | 270 | 1.6 | 8.0 | 0.00 | 0.38 | 0.25 | 91 | 1017.4 |
| 20260905180113 | 15 | 236 | 3.2 | 11.3 | 0.00 | 0.38 | 0.25 | 92 | 1017.2 |
| 20260905174556 | 14 | 263 | 3.2 | 14.5 | 0.00 | 0.76 | 0.25 | 91 | 1017.0 |
| 20260905173113 | 15 | 231 | 3.2 | 12.9 | 0.03 | 0.76 | 0.25 | 91 | 1016.8 |
| 20260905171556 | 15 | 271 | 4.8 | 11.3 | 0.18 | 0.76 | 0.25 | 90 | 1016.7 |
| 20260905170051 | 15 | 235 | 1.6 | 11.3 | 0.25 | 0.76 | 0.25 | 90 | 1016.5 |
| 20260905164555 | 15 | 271 | 3.2 | 16.1 | 0.25 | 0.76 | 0.25 | 89 | 1016.4 |
| 20260905163050 | 15 | 279 | 1.6 | 12.9 | 0.23 | 0.71 | 0.23 | 87 | 1016.4 |
| 20260905161549 | 16 | 344 | 12.9 | 35.4 | 0.05 | 0.56 | 0.05 | 77 | 1016.4 |
| 20260905160055 | 18 | 277 | 8.0 | 33.8 | 0.00 | 0.51 | 0.00 | 63 | 1015.4 |
| 20260905154550 | 19 | 257 | 12.9 | 33.8 | 0.00 | 0.69 | 0.00 | 61 | 1015.2 |
| 20260905153043 | 19 | 242 | 11.3 | 29.0 | 0.00 | 0.69 | 0.00 | 62 | 1015.1 |
| 20260905151542 | 19 | 206 | 11.3 | 37.0 | 0.00 | 0.69 | 0.00 | 61 | 1014.9 |
| 20260905150043 | 20 | 219 | 11.3 | 37.0 | 0.00 | 0.69 | 0.00 | 58 | 1014.6 |
| 20260905144539 | 19 | 215 | 9.7 | 32.2 | 0.00 | 0.69 | 0.00 | 61 | 1014.5 |
| 20260905143040 | 18 | 309 | 12.9 | 32.2 | 0.00 | 0.69 | 0.00 | 65 | 1014.4 |
| 20260905141537 | 20 | 279 | 9.7 | 19.3 | 0.00 | 0.69 | 0.00 | 56 | 1014.0 |
| 20260905140036 | 20 | 275 | 16.1 | 38.6 | 0.00 | 0.69 | 0.00 | 54 | 1014.0 |
| 20260905134535 | 20 | 266 | 12.9 | 27.4 | 0.00 | 0.69 | 0.00 | 55 | 1014.0 |
| 20260905133037 | 19 | 277 | 8.0 | 33.8 | 0.00 | 0.69 | 0.00 | 58 | 1014.2 |
| 20260905131534 | 19 | 322 | 17.7 | 32.2 | 0.00 | 0.69 | 0.00 | 55 | 1014.4 |
| 20260905130032 | 20 | 193 | 12.9 | 32.2 | 0.00 | 0.69 | 0.00 | 52 | 1014.1 |
| 20260905124532 | 20 | 252 | 12.9 | 38.6 | 0.00 | 0.69 | 0.00 | 52 | 1013.9 |